Theta_e
297 290 286 288 288 287 287 285 284 287 291 287 290 290 293 297 293 293 292 293 293 296 298 300 312 320 326 327 328 329 329 329 330 331 330 331 330 331 331 331 332 332 332 332
293 287 291 294 292 289 286 284 283 288 290 286 286 285 289 291 292 293 294 294 294 293 295 297 301 309 317 325 326 329 328 327 329 330 330 331 332 331 332 332 332 332 332 331
286 289 295 292 290 288 286 284 283 285 287 285 283 282 286 290 291 294 295 296 297 297 296 295 296 299 304 306 313 329 329 328 328 330 330 330 331 330 330 330 330 331 331 329
287 292 291 290 288 289 284 289 288 286 281 276 281 273 280 285 287 290 291 292 294 294 295 296 296 297 299 300 299 305 322 329 329 329 328 328 328 326 327 330 331 330 332 331
284 287 287 288 289 290 286 290 288 287 281 279 278 275 278 284 283 286 290 290 292 294 295 295 296 298 299 301 303 301 306 314 320 330 330 328 327 328 328 330 328 330 331 331
287 291 290 290 292 292 292 288 286 285 282 273 278 277 275 281 284 285 288 291 293 293 293 293 294 295 295 297 299 303 304 305 308 315 326 329 328 328 327 328 326 326 326 322
285 286 290 292 288 291 289 283 272 271 269 271 280 276 279 285 287 287 289 290 291 292 291 290 289 290 291 292 295 299 298 297 299 303 306 310 311 315 317 318 323 320 316 316
276 273 286 291 288 286 285 283 274 267 270 274 280 275 279 288 291 292 291 291 291 289 289 288 288 288 288 289 290 292 293 292 294 297 298 301 303 305 305 305 307 308 310 309
278 278 289 290 291 290 286 282 285 279 272 272 276 280 286 288 289 290 289 289 288 287 287 286 286 285 286 286 287 288 289 289 290 293 294 295 296 298 299 301 302 303 303 302
283 278 286 289 291 290 288 289 279 277 266 266 276 276 277 284 286 289 287 287 287 287 285 284 284 284 284 285 285 285 286 286 287 289 291 291 291 293 293 295 296 297 299 299
286 279 282 288 284 283 285 282 283 282 278 272 271 275 284 286 288 288 287 287 286 285 285 283 283 283 284 284 284 283 284 285 285 286 287 287 288 289 290 291 292 292 292 292
287 282 273 279 287 289 287 286 285 277 272 276 277 276 289 288 289 288 287 287 285 284 283 282 282 282 282 282 282 282 284 284 284 285 285 285 286 287 287 288 289 289 288 288
286 279 265 272 279 285 282 285 287 286 284 277 272 275 288 288 287 288 285 284 284 283 283 282 281 280 280 280 280 281 282 283 283 284 283 283 284 284 285 286 286 287 287 286
287 279 269 268 276 278 278 282 284 283 279 278 280 279 285 286 285 286 285 284 283 282 282 281 280 280 279 279 279 279 280 281 282 282 281 281 281 282 282 283 283 284 284 284
280 269 276 275 277 279 275 278 281 277 276 276 277 277 284 286 288 286 284 284 283 282 281 280 279 279 279 279 279 279 279 280 280 280 280 280 281 282 282 282 282 282 283 282
282 267 271 267 278 279 274 280 281 278 276 280 277 276 286 290 289 285 284 284 282 282 281 280 280 279 279 279 278 279 278 278 279 278 278 279 279 279 280 280 280 281 281 281
274 272 266 263 273 270 265 274 280 281 282 281 275 280 287 287 287 285 285 284 283 282 280 279 278 278 278 278 278 277 277 277 277 276 277 277 277 277 277 278 278 278 278 278
270 267 266 267 263 258 273 279 279 281 283 285 284 284 287 287 288 287 288 286 284 281 279 278 277 276 276 277 277 277 276 276 275 275 275 276 276 276 276 276 276 276 276 276
280 268 263 262 256 267 273 276 276 275 277 279 282 285 286 285 284 282 286 286 286 284 281 279 278 276 276 276 276 276 275 275 274 274 274 275 275 275 275 274 274 275 275 275
279 277 267 257 257 257 272 276 278 279 270 277 278 280 282 284 280 282 282 283 281 281 280 279 278 277 276 276 277 275 274 273 272 273 273 273 274 274 273 273 274 275 275 275
266 259 263 257 256 264 274 278 278 267 272 277 278 279 280 282 280 278 277 276 278 278 278 278 277 276 275 276 275 273 272 271 271 272 272 272 272 272 272 273 273 274 273 273
266 260 258 256 256 261 276 276 274 276 277 277 277 278 280 277 276 275 275 275 275 274 276 275 274 273 273 274 273 272 270 270 270 271 270 270 271 272 272 271 271 272 272 271
267 270 267 269 269 275 276 277 279 279 278 278 277 278 278 275 273 273 272 272 273 273 274 273 272 271 271 271 272 270 269 269 269 268 268 268 269 271 271 270 269 268 269 268
273 273 272 271 274 277 278 278 279 279 278 279 279 279 277 273 272 270 270 271 271 270 269 268 269 268 267 268 270 268 268 268 267 266 266 266 267 267 267 269 269 268 267 267
273 274 272 272 272 275 277 277 279 277 275 275 272 273 274 274 273 272 271 269 269 268 266 266 267 266 265 264 264 264 265 265 265 266 266 266 265 266 265 267 266 268 268 268
273 275 273 273 276 276 275 270 270 272 273 273 271 270 270 272 274 272 270 269 268 267 266 266 266 265 264 263 263 263 264 265 265 265 265 265 265 263 264 264 264 269 270 271
Wind_Speed
4 4 6 7 6 4 6 2 4 4 2 1 6 4 7 9 5 6 5 5 5 7 5 2 5 5 10 11 12 14 14 11 9 7 6 6 8 5 4 5 7 8 8 9
4 8 7 8 8 7 4 4 3 3 3 3 3 4 7 7 6 8 9 8 8 4 4 2 3 6 6 7 10 13 14 14 11 9 7 5 5 5 7 7 8 9 9 10
3 4 13 6 5 5 6 5 3 3 3 2 1 6 7 8 6 7 8 7 7 8 6 4 4 5 6 8 6 11 15 15 12 11 7 6 2 2 5 7 7 7 10 9
5 10 2 5 3 5 3 4 3 4 3 2 2 6 5 8 10 7 7 6 5 6 8 8 8 8 8 7 6 7 0 12 13 14 11 13 9 9 7 7 6 7 11 10
6 7 7 4 5 6 4 4 0 2 3 2 3 1 8 8 6 8 11 10 8 8 8 9 8 7 7 8 8 7 5 8 6 12 14 12 11 7 5 6 7 8 6 7
7 0 5 6 4 7 6 3 4 4 3 3 6 6 6 5 6 3 6 7 9 8 8 9 8 8 9 10 10 10 9 10 10 8 3 11 13 10 6 5 6 5 3 3
2 2 2 3 7 3 6 6 3 3 2 6 5 6 11 4 3 8 12 8 8 8 8 9 10 9 9 11 11 9 10 11 10 10 9 8 7 6 6 3 1 6 4 3
5 1 7 2 6 7 7 8 6 7 4 4 3 6 6 4 9 11 10 10 10 10 8 9 9 8 8 10 10 10 10 9 9 10 10 9 10 6 6 8 7 6 5 6
4 4 3 4 4 10 5 9 4 4 3 3 4 5 3 4 5 7 9 9 8 8 8 8 7 7 7 8 9 9 9 9 9 9 9 11 10 12 8 11 9 7 8 8
2 1 2 5 3 4 7 7 1 2 2 3 4 3 4 5 6 8 6 7 8 8 8 6 6 6 6 7 7 9 9 9 9 10 9 9 11 12 10 10 11 11 10 8
4 2 2 4 1 3 4 4 2 2 5 4 2 4 4 5 8 8 6 7 7 8 7 6 5 6 6 7 7 7 8 9 9 9 9 11 11 11 11 11 10 11 10 9
6 3 2 3 7 5 4 1 4 4 5 4 3 6 4 4 9 10 8 8 8 8 6 6 6 6 7 8 8 8 8 9 9 9 10 11 10 10 11 11 11 10 11 10
3 1 3 7 5 4 2 3 2 2 1 4 5 5 5 7 8 6 8 7 7 7 7 7 7 6 6 6 6 7 7 9 9 9 10 11 10 10 11 11 10 10 11 11
3 3 6 6 3 2 2 5 4 0 3 6 6 3 6 7 3 6 7 6 6 6 6 5 5 6 5 6 6 6 7 7 7 9 10 10 9 9 9 9 9 10 9 11
4 3 2 2 2 3 4 3 4 5 5 4 6 1 6 11 3 6 7 7 7 6 6 5 5 5 5 6 5 6 7 7 7 8 9 9 8 8 8 9 9 9 10 9
3 0 3 5 2 4 3 7 7 5 3 5 5 7 8 6 6 8 10 9 8 8 8 7 6 6 5 5 5 6 6 6 7 8 8 7 7 8 8 8 8 8 9 9
4 4 4 4 4 5 7 7 11 5 6 7 6 9 6 4 7 10 11 13 10 9 9 9 8 7 6 5 5 5 5 6 7 7 7 7 7 8 7 7 7 8 8 8
4 4 3 1 5 3 7 4 2 8 6 8 6 4 9 7 8 10 16 16 15 11 10 9 8 7 6 5 6 5 5 6 7 7 7 6 6 7 6 6 6 6 6 6
4 4 3 5 4 7 6 5 3 1 1 5 8 6 7 4 3 2 3 2 10 14 12 11 11 8 6 7 6 6 6 6 6 6 6 5 5 6 6 6 5 4 6 6
4 5 5 4 5 6 6 3 2 1 5 4 4 7 6 6 3 4 1 4 7 10 8 12 11 8 7 6 7 7 6 6 7 5 5 5 5 6 6 5 4 3 4 6
2 4 6 3 3 10 8 5 1 7 6 3 4 4 3 3 2 3 5 6 6 8 11 10 11 11 9 7 7 8 7 6 5 5 5 5 5 6 4 4 3 3 4 5
7 6 4 3 4 8 4 1 6 6 2 2 3 4 2 4 4 4 5 7 9 11 11 8 8 7 6 6 6 6 6 6 5 5 5 4 4 4 4 4 3 3 4 4
2 8 6 9 9 6 5 5 3 3 4 3 2 2 3 6 5 5 4 5 4 7 8 7 8 8 5 3 5 7 5 6 6 5 5 4 3 3 4 4 3 3 3 3
4 4 3 4 6 9 8 5 5 7 7 4 4 4 7 5 6 4 5 6 6 6 7 6 8 7 6 4 4 5 6 6 6 6 5 4 4 3 3 2 2 2 2 2
6 4 6 7 5 7 8 7 6 4 3 2 1 3 5 6 4 5 5 5 5 5 3 4 6 5 5 5 5 4 5 6 6 5 4 4 3 3 3 2 2 2 1 3
6 10 6 9 7 6 6 3 3 5 6 7 5 2 1 2 7 6 6 4 6 7 5 5 5 6 6 6 6 5 5 5 6 5 4 3 3 2 2 2 0 3 3 3
Wind_Direction
204 162 190 186 194 152 107 118 186 121 14 194 182 193 239 254 179 230 222 221 231 259 266 64 91 161 176 165 169 166 167 175 176 188 185 184 195 186 182 181 183 188 187 195
173 215 196 192 188 223 164 158 261 98 12 64 337 283 269 255 238 200 204 213 209 218 281 237 107 88 78 173 160 161 168 172 176 190 202 203 194 197 194 196 199 190 189 194
190 256 188 196 193 183 177 158 203 102 314 307 40 292 249 263 236 242 219 196 196 195 211 281 14 34 41 29 15 175 174 176 179 180 181 214 158 160 193 198 204 200 198 198
208 258 246 204 193 145 127 171 198 157 82 211 139 273 278 248 243 242 241 182 194 83 76 59 35 35 27 9 360 30 94 186 181 175 180 200 210 202 199 197 198 200 196 195
229 195 214 183 177 130 174 68 132 200 149 73 269 33 267 267 274 242 224 103 89 73 77 65 44 27 18 11 8 359 47 48 9 192 187 188 200 204 195 204 192 193 192 186
230 316 164 171 165 149 176 75 42 60 82 282 202 171 264 231 215 104 79 96 96 83 67 55 43 27 14 12 20 26 38 37 26 43 184 206 206 197 172 201 198 186 113 86
85 244 28 143 175 115 119 115 42 19 2 232 268 199 249 246 339 169 144 117 92 78 63 52 38 22 17 14 14 28 36 40 30 37 46 50 55 44 64 48 56 128 110 83
140 320 165 248 165 159 165 163 150 176 197 244 251 231 265 5 95 90 91 99 89 79 70 63 49 35 21 18 15 23 41 40 35 44 46 50 51 59 55 55 62 54 77 81
147 258 104 184 141 140 188 209 159 86 21 68 227 293 9 89 90 98 101 90 87 83 77 66 54 49 34 29 24 27 36 46 44 54 54 56 59 62 57 66 59 62 50 64
128 121 291 210 125 240 156 147 140 31 151 237 260 226 225 230 186 143 125 115 111 104 88 75 64 57 50 38 25 26 36 46 48 53 61 63 66 67 66 59 63 67 63 51
148 79 342 31 82 200 146 160 71 144 172 181 176 255 231 262 182 145 126 130 122 108 103 95 78 67 62 55 43 34 32 42 51 56 61 65 65 68 71 72 68 69 70 65
182 136 155 179 165 42 42 297 191 155 270 218 140 263 21 54 103 132 133 119 108 106 105 97 83 65 54 49 42 40 42 49 48 56 63 65 68 70 73 72 71 77 79 73
108 134 53 356 16 118 144 227 213 229 340 217 146 261 55 56 55 57 100 102 105 109 97 92 78 69 65 57 50 41 44 54 49 55 61 61 61 64 65 68 69 71 76 74
59 104 140 169 166 150 134 107 145 316 234 264 237 262 14 12 119 135 129 128 125 126 119 102 91 86 79 71 57 48 52 50 57 60 62 60 57 60 62 62 65 68 72 78
85 101 74 182 186 135 184 208 196 160 186 167 281 322 273 294 259 180 154 141 139 141 134 126 121 108 94 84 70 58 54 52 54 65 65 61 56 56 62 62 60 61 68 74
13 133 87 332 306 173 233 230 224 224 240 248 236 275 230 240 148 147 160 156 162 160 150 145 137 126 115 108 94 82 71 64 67 68 67 62 61 63 60 60 64 65 67 70
80 105 70 282 345 24 336 239 211 206 199 174 181 225 166 157 182 177 168 168 172 169 160 156 152 143 133 124 118 104 93 82 76 76 68 67 66 68 60 60 67 69 72 78
107 78 96 222 29 17 238 279 191 218 255 229 258 178 185 191 214 190 187 177 163 162 162 160 150 139 132 122 111 112 102 97 92 82 77 72 75 78 69 69 73 75 79 77
66 100 55 117 178 288 338 340 347 15 66 19 286 241 206 200 95 294 169 180 158 164 167 167 150 142 141 136 132 113 99 93 87 80 76 69 82 89 84 77 69 78 91 89
57 65 109 56 126 206 235 236 262 320 306 348 318 334 166 139 195 218 98 124 116 117 140 138 123 125 129 138 128 118 115 110 102 98 88 77 81 86 80 76 70 72 98 101
52 3 160 186 196 285 241 242 223 85 244 319 320 320 174 220 214 128 117 74 89 116 128 134 142 147 148 146 132 134 130 116 113 110 101 83 79 91 86 81 75 79 88 89
163 139 209 66 73 280 212 189 164 212 266 274 318 325 151 139 144 131 110 121 128 131 133 137 126 125 121 124 129 136 137 130 117 109 96 78 68 95 96 96 77 79 99 102
294 183 186 174 211 231 228 213 222 184 217 252 234 276 183 161 201 180 160 146 139 138 136 126 132 123 100 95 144 145 143 124 122 115 117 112 98 107 125 120 113 92 95 107
262 175 198 61 260 238 243 255 224 205 222 224 218 198 172 190 176 179 155 155 155 146 145 135 136 146 146 135 126 130 144 141 139 139 143 143 136 122 88 92 95 99 104 119
198 115 192 256 290 309 272 230 217 218 228 230 312 196 194 158 188 162 174 173 164 146 122 132 150 150 158 140 127 138 143 141 144 146 154 143 141 142 112 104 132 132 153 153
180 206 186 235 206 189 233 267 298 167 216 224 190 249 272 202 179 160 176 167 163 161 153 156 160 153 164 160 158 158 160 161 157 152 155 158 149 154 148 154 282 258 206 199